TimeCST,TemperatureF,Dew PointF,Humidity,Sea Level PressureIn,VisibilityMPH,Wind Direction,Wind SpeedMPH,Gust SpeedMPH,PrecipitationIn,Events,Conditions,WindDirDegrees,DateUTC
12:53 AM,50.0,37.9,63,30.38,10.0,NNE,20.7,25.3,N/A,,Clear,30,2012-11-13 06:53:00
1:53 AM,48.0,37.0,66,30.38,10.0,NNE,15.0,25.3,N/A,,Clear,30,2012-11-13 07:53:00
2:53 AM,46.4,35.6,66,30.37,10.0,NE,17.3,26.5,N/A,,Clear,40,2012-11-13 08:53:00
3:53 AM,46.0,34.0,63,30.38,10.0,NNE,20.7,27.6,N/A,,Clear,30,2012-11-13 09:53:00
4:53 AM,46.0,33.1,61,30.39,10.0,NNE,20.7,28.8,N/A,,Clear,30,2012-11-13 10:53:00
5:53 AM,45.0,32.0,60,30.41,10.0,NE,20.7,26.5,N/A,,Clear,40,2012-11-13 11:53:00
6:53 AM,45.0,30.9,58,30.42,10.0,NE,19.6,25.3,N/A,,Partly Cloudy,40,2012-11-13 12:53:00
7:53 AM,46.9,30.0,52,30.43,10.0,NE,21.9,-,N/A,,Partly Cloudy,40,2012-11-13 13:53:00
8:53 AM,48.9,28.9,46,30.43,10.0,NE,20.7,29.9,N/A,,Partly Cloudy,40,2012-11-13 14:53:00
9:53 AM,51.1,28.9,43,30.43,10.0,NE,16.1,24.2,N/A,,Scattered Clouds,40,2012-11-13 15:53:00
10:53 AM,53.1,30.9,43,30.40,10.0,NNE,16.1,24.2,N/A,,Scattered Clouds,30,2012-11-13 16:53:00
11:53 AM,55.0,30.9,40,30.36,10.0,North,13.8,21.9,N/A,,Scattered Clouds,10,2012-11-13 17:53:00
12:53 PM,57.0,30.0,36,30.33,10.0,NNE,13.8,23.0,N/A,,Mostly Cloudy,20,2012-11-13 18:53:00
1:53 PM,57.0,30.9,37,30.30,10.0,North,13.8,-,N/A,,Mostly Cloudy,10,2012-11-13 19:53:00
2:53 PM,57.0,32.0,39,30.29,10.0,North,12.7,-,N/A,,Mostly Cloudy,10,2012-11-13 20:53:00
3:53 PM,57.0,32.0,39,30.29,10.0,North,12.7,-,N/A,,Mostly Cloudy,10,2012-11-13 21:53:00
4:53 PM,55.9,33.1,42,30.30,10.0,North,12.7,-,N/A,,Mostly Cloudy,10,2012-11-13 22:53:00
5:53 PM,54.0,32.0,43,30.30,10.0,NNE,12.7,-,N/A,,Overcast,20,2012-11-13 23:53:00
6:53 PM,55.0,32.0,42,30.31,10.0,NNE,15.0,21.9,N/A,,Overcast,20,2012-11-14 00:53:00
7:53 PM,55.0,32.0,42,30.32,10.0,NNE,15.0,-,N/A,,Mostly Cloudy,20,2012-11-14 01:53:00
8:53 PM,55.0,32.0,42,30.32,10.0,NNE,15.0,21.9,N/A,,Overcast,30,2012-11-14 02:53:00
9:53 PM,54.0,32.0,43,30.31,10.0,NE,16.1,24.2,N/A,,Mostly Cloudy,50,2012-11-14 03:53:00
10:53 PM,53.1,33.1,47,30.31,10.0,NE,15.0,-,N/A,,Overcast,50,2012-11-14 04:53:00
11:53 PM,52.0,34.0,50,30.30,10.0,NE,15.0,20.7,N/A,,Overcast,40,2012-11-14 05:53:00